[TLELIST] Archives

 

[list_settings.list_name] Current TLEs

March 29th 2013 PDT

HST 1 20580U 90037B 13087.14996437 .00001496 00000-0 95088-4 0 2049 2 20580 028.4704 083.9818 0003069 204.4496 244.7647 15.03400171 57486 ISS (ZARYA) 1 25544U 98067A 13088.25482082 .00007003 00000-0 12056-3 0 5039 2 25544 051.6467 145.1357 0012305 083.1490 025.1705 15.52234826822294 CXO 1 25867U 99040B 13088.57296285 .00000177 00000-0 00000+0 0 8795 2 25867 074.9153 344.5038 8629059 277.7606 000.1143 00.37806123 10235 ____________________________________________________________________ These 2-Line ...Continue Reading

[list_settings.list_name] Current TLEs

March 28th 2013 PDT

HST 1 20580U 90037B 13087.14996437 .00001496 00000-0 95088-4 0 2049 2 20580 028.4704 083.9818 0003069 204.4496 244.7647 15.03400171 57486 ISS (ZARYA) 1 25544U 98067A 13087.41803880 .00007279 00000-0 12505-3 0 4964 2 25544 051.6461 149.2950 0012369 080.3893 028.8830 15.52223491822169 CXO 1 25867U 99040B 13088.57296285 .00000177 00000-0 00000+0 0 8795 2 25867 074.9153 344.5038 8629059 277.7606 000.1143 00.37806123 10235 ____________________________________________________________________ These 2-Line ...Continue Reading

[list_settings.list_name] Current TLEs

March 27th 2013 PDT

HST 1 20580U 90037B 13085.42875774 .00001372 00000-0 86249-4 0 2039 2 20580 028.4701 095.2609 0003084 184.9396 290.3406 15.03395772 57238 ISS (ZARYA) 1 25544U 98067A 13086.38234229 .00007948 00000-0 13596-3 0 4913 2 25544 051.6456 154.4405 0012269 077.0111 000.9845 15.52198818822005 CXO 1 25867U 99040B 13088.57296285 .00000177 00000-0 00000+0 0 8795 2 25867 074.9153 344.5038 8629059 277.7606 000.1143 00.37806123 10235 ____________________________________________________________________ These 2-Line ...Continue Reading

[list_settings.list_name] Current TLEs

March 26th 2013 PDT

HST 1 20580U 90037B 13084.16009287 .00001596 00000-0 10233-3 0 2023 2 20580 028.4701 103.5733 0003193 170.8099 264.6417 15.03393523 57030 ISS (ZARYA) 1 25544U 98067A 13085.48502968 .00007914 00000-0 13542-3 0 4847 2 25544 051.6470 158.9015 0012289 073.6464 026.9211 15.52195016821867 CXO 1 25867U 99040B 13085.93096847 .00000334 00000-0 00000+0 0 8788 2 25867 074.8926 344.7137 8627551 277.7535 000.5529 00.37803762 10227 ____________________________________________________________________ These 2-Line ...Continue Reading

[list_settings.list_name] Current TLEs

March 25th 2013 PDT

HST 1 20580U 90037B 13084.16009287 .00001596 00000-0 10233-3 0 2023 2 20580 028.4701 103.5733 0003193 170.8099 264.6417 15.03393523 57030 ISS (ZARYA) 1 25544U 98067A 13084.46861111 .00008500 00000-0 14495-3 0 4763 2 25544 051.6466 163.9537 0012261 070.0448 107.1527 15.52179795821701 CXO 1 25867U 99040B 13085.93096847 .00000334 00000-0 00000+0 0 8788 2 25867 074.8926 344.7137 8627551 277.7535 000.5529 00.37803762 10227 ____________________________________________________________________ These 2-Line ...Continue Reading

[list_settings.list_name] Current TLEs

March 24th 2013 PDT

HST 1 20580U 90037B 13082.51468804 .00001580 00000-0 10120-3 0 2011 2 20580 028.4699 114.3559 0003235 152.7930 359.8203 15.03390570 56793 ISS (ZARYA) 1 25544U 98067A 13083.50394676 .00008881 00000-0 15118-3 0 4691 2 25544 051.6465 168.7469 0012202 066.3567 116.9076 15.52162946821552 CXO 1 25867U 99040B 13083.28555962 .00000444 00000-0 00000+0 0 8773 2 25867 074.8726 344.8780 8626887 277.7827 000.4173 00.37798290 10217 ____________________________________________________________________ These 2-Line ...Continue Reading

[list_settings.list_name] Current TLEs

March 23rd 2013 PDT

HST 1 20580U 90037B 13081.16707490 .00001860 00000-0 12128-3 0 2008 2 20580 028.4698 123.1872 0003256 138.6566 266.0249 15.03388217 56580 ISS (ZARYA) 1 25544U 98067A 13082.06513593 -.00005113 00000-0 -75090-4 0 4617 2 25544 051.6438 175.9001 0012165 059.9961 358.2535 15.52132058821336 CXO 1 25867U 99040B 13083.28555962 .00000444 00000-0 00000+0 0 8773 2 25867 074.8726 344.8780 8626887 277.7827 000.4173 00.37798290 10217 ____________________________________________________________________ These 2-Line ...Continue Reading

[list_settings.list_name] Current TLEs

March 22nd 2013 PDT

HST 1 20580U 90037B 13081.16707490 .00001860 00000-0 12128-3 0 2008 2 20580 028.4698 123.1872 0003256 138.6566 266.0249 15.03388217 56580 ISS (ZARYA) 1 25544U 98067A 13081.16633392 .00030933 00000-0 50677-3 0 4559 2 25544 051.6465 180.3692 0012035 060.7316 012.0155 15.52123944821193 CXO 1 25867U 99040B 13083.28555962 .00000444 00000-0 00000+0 0 8773 2 25867 074.8726 344.8780 8626887 277.7827 000.4173 00.37798290 10217 ____________________________________________________________________ These 2-Line ...Continue Reading

[list_settings.list_name] Current TLEs

March 21st 2013 PDT

HST 1 20580U 90037B 13079.51642086 .00002005 00000-0 13172-3 0 1992 2 20580 028.4698 134.0096 0003464 121.3460 332.0673 15.03384634 56339 ISS (ZARYA) 1 25544U 98067A 13080.39670133 .00014528 00000-0 24317-3 0 4517 2 25544 051.6418 184.1901 0012391 053.0860 036.4339 15.52052668821075 CXO 1 25867U 99040B 13080.64045963 .00000383 00000-0 00000+0 0 8755 2 25867 074.8462 345.0399 8629406 277.8180 000.2996 00.37799415 10206 ____________________________________________________________________ These 2-Line ...Continue Reading

[list_settings.list_name] Current TLEs

March 20th 2013 PDT

HST 1 20580U 90037B 13078.17673970 .00001514 00000-0 96477-4 0 1982 2 20580 028.4694 142.7824 0003439 107.3703 281.1672 15.03376367 56131 ISS (ZARYA) 1 25544U 98067A 13079.43055633 .00015575 00000-0 25164-3 0 4460 2 25544 051.6469 188.9924 0012825 035.7828 049.9730 15.52972652820922 CXO 1 25867U 99040B 13080.63932362 .00000383 00000-0 00000+0 0 8763 2 25867 074.8475 345.0388 8629558 277.8163 000.1428 00.37799200 10208 ____________________________________________________________________ These 2-Line ...Continue Reading
  • This mailing list is a public mailing list - anyone may join or leave, at any time.
  • This mailing list is announce-only.

International Space Station (ISS) / Hubble Space Telescope (HST) / Chandra X-Ray Observatory Orbital Data via EMAIL

Privacy Policy:

Private list